Weather History for KMCK - January, 2014

Change the Weather History Date:

Monday, January 27, 2014

  Actual Average Record
Temperature  
Mean Temperature 14 °F 28 °F  
Max Temperature 20 °F 41 °F 75 °F (2015)
Min Temperature 7 °F 14 °F -18 °F (1963)
Degree Days  
Heating Degree Days 51    
Moisture  
Dew Point -4 °F    
Average Humidity 46    
Maximum Humidity 80    
Minimum Humidity 34    
Precipitation  
Precipitation 0.00 in 0.02 in 0.33 in (1959)
Month to date precipitation 0.01 0.44  
Year to date precipitation 0.01 0.44  
Sea Level Pressure  
Sea Level Pressure 30.44 in    
Wind  
Wind Speed 10 mph (SSE)    
Max Wind Speed 21 mph    
Max Gust Speed 28 mph    
Visibility 10 miles    
Events      
T = Trace of Precipitation, MM = Missing Value Source: NWS Daily Summary

Daily Weather History Graph

Daily Weather History Graph

Search for Another Location

Airport or City:

Trip Planner

Search our weather history database for the weather conditions in past years. The results will help you decide how hot, cold, wet, or windy it might be!

Date:

Astronomy

Jan. 27, 2014 Rise Set
Actual Time 7:55 AM CST 5:55 PM CST
Civil Twilight 7:26 AM CST 6:24 PM CST
Nautical Twilight 6:53 AM CST 6:57 PM CST
Astronomical Twilight 6:21 AM CST 7:29 PM CST
Moon 4:38 AM CST (1/27) 2:43 PM CST (1/27)
Length of Visible Light 10h 57m
Length of Day
9h 59m
Waning Crescent, 14% of the Moon is Illuminated
Jan 27
Waning Crescent
Jan 30
New
Feb 6
First Quarter
Feb 14
Full
Feb 22
Last Quarter

Hourly Weather History & Observations

Time (CST) Temp. Windchill Dew Point Humidity Pressure Visibility Wind Dir Wind Speed Gust Speed Precip Events Conditions
12:53 AM 15.1 °F -2.5 °F -9.0 °F 34% 30.35 in 10.0 mi North 20.7 mph 27.6 mph N/A   Overcast
1:53 AM 14.0 °F -2.0 °F -9.0 °F 35% 30.37 in 10.0 mi North 16.1 mph - N/A   Overcast
2:53 AM 12.9 °F -3.4 °F -7.1 °F 41% 30.39 in 10.0 mi North 16.1 mph 24.2 mph N/A   Overcast
3:53 AM 12.0 °F -2.7 °F -6.0 °F 44% 30.41 in 10.0 mi North 12.7 mph - N/A   Partly Cloudy
4:53 AM 12.0 °F -0.4 °F -5.1 °F 46% 30.45 in 10.0 mi NE 9.2 mph - N/A   Overcast
5:53 AM 10.9 °F 0.2 °F -5.1 °F 49% 30.45 in 10.0 mi NNE 6.9 mph - N/A   Scattered Clouds
6:53 AM 10.9 °F - -5.1 °F 49% 30.46 in 10.0 mi Calm Calm - N/A   Mostly Cloudy
7:53 AM 10.0 °F 3.6 °F -4.0 °F 53% 30.49 in 10.0 mi North 3.5 mph - N/A   Mostly Cloudy
8:53 AM 10.9 °F - -5.1 °F 49% 30.50 in 10.0 mi Calm Calm - N/A   Mostly Cloudy
9:53 AM 12.9 °F 2.6 °F -4.0 °F 47% 30.51 in 10.0 mi North 6.9 mph - N/A   Overcast
10:53 AM 14.0 °F 3.9 °F -4.0 °F 45% 30.52 in 10.0 mi North 6.9 mph - N/A   Overcast
11:53 AM 16.0 °F 10.4 °F -5.1 °F 39% 30.51 in 10.0 mi NNW 3.5 mph - N/A   Overcast
12:53 PM 17.1 °F 11.7 °F -5.1 °F 37% 30.48 in 10.0 mi Variable 3.5 mph - N/A   Partly Cloudy
1:53 PM 17.1 °F 11.7 °F -4.0 °F 39% 30.45 in 10.0 mi Variable 3.5 mph - N/A   Scattered Clouds
2:53 PM 19.0 °F 8.2 °F -4.0 °F 36% 30.43 in 10.0 mi SSW 9.2 mph - N/A   Scattered Clouds
3:53 PM 19.0 °F 7.5 °F -4.0 °F 36% 30.43 in 10.0 mi SW 10.4 mph - N/A   Scattered Clouds
4:53 PM 18.0 °F 11.1 °F -5.1 °F 36% 30.43 in 10.0 mi WSW 4.6 mph - N/A   Partly Cloudy
5:53 PM 18.0 °F 12.7 °F -4.0 °F 38% 30.43 in 10.0 mi South 3.5 mph - N/A   Overcast
6:53 PM 17.1 °F 11.7 °F -4.0 °F 39% 30.44 in 10.0 mi SE 3.5 mph - N/A   Overcast
7:53 PM 14.0 °F 6.5 °F -4.0 °F 45% 30.45 in 10.0 mi SSE 4.6 mph - N/A   Clear
8:53 PM 10.0 °F -1.9 °F -5.1 °F 51% 30.45 in 10.0 mi South 8.1 mph - N/A   Clear
9:41 PM 10.0 °F 1.8 °F -5.1 °F 51% 30.30 in 10.0 mi SSE 4.6 mph - N/A   Mostly Cloudy
9:53 PM 10.9 °F 2.9 °F -5.1 °F 49% 30.45 in 10.0 mi South 4.6 mph - N/A   Overcast
10:38 PM 10.0 °F 1.8 °F -0.9 °F 61% 30.30 in 10.0 mi South 4.6 mph - N/A   Scattered Clouds
10:53 PM 9.0 °F -0.9 °F 1.0 °F 70% 30.45 in 10.0 mi South 5.8 mph - N/A   Clear
11:53 PM 8.1 °F -5.3 °F 3.0 °F 80% 30.45 in 10.0 mi SW 9.2 mph - N/A   Clear